Location: La Coruña
(43.3623°N, 8.4115°W)
Time: 16:49:50
(UTC+01:00)

STARLINK-1066 - Pass Details

Date: 19 January 2020
Orbit: 348 x 351 km, 53.0° (Epoch: 28 February)

Event Time Altitude Azimuth Distance (km) Brightness Sun altitude
Rises 18:47:55 0° 232° (SW) 2,169 8.7 -4.2°
Reaches altitude 10° 18:49:56 10° 232° (SW) 1,328 7.3 -4.5°
Maximum altitude 18:52:54 87° 140° (SE) 362 2.7 -5.0°
Drops below altitude 10° 18:55:52 10° 55° (NE) 1,335 5.0 -5.5°
Enters shadow 18:56:26 - 55° (NE) 1,566 5.3 -5.6°
